This is the latest recevied weather packets stored in our database for station/object KG5TTF. If no packets are shown the sender has not sent any weather packets the latest 10 day(s).
| Time | Temp. | Humidity | Pressure | Rain* | Wind** | Luminosity | Snow |
|---|---|---|---|---|---|---|---|
| 1777558908 | 1.67° C | 98% | 1024.6 hPa | 0 mm | - | 55 W/m² | - |
| 1777558604 | 1.67° C | 98% | 1024.6 hPa | 0 mm | - | 65 W/m² | - |
| 1777558299 | 1.67° C | 98% | 1024.6 hPa | 0 mm | - | 69 W/m² | - |
| 1777557997 | 1.67° C | 98% | 1024.4 hPa | 0 mm | - | 59 W/m² | - |
| 1777557693 | 1.67° C | 98% | 1024.6 hPa | 0 mm | - | 54 W/m² | - |
| 1777557390 | 1.67° C | 98% | 1024.4 hPa | 0 mm | - | 60 W/m² | - |
| 1777557086 | 1.67° C | 98% | 1024.6 hPa | 0 mm | - | 65 W/m² | - |
| 1777556782 | 1.67° C | 98% | 1024.4 hPa | 0 mm | - | 68 W/m² | - |
| 1777556479 | 1.67° C | 98% | 1024.4 hPa | 0 mm | - | 65 W/m² | - |
| 1777556178 | 1.67° C | 98% | 1024.1 hPa | 0 mm | - | 61 W/m² | - |
| 1777555874 | 1.11° C | 98% | 1024.4 hPa | 0 mm | - | 61 W/m² | - |
| 1777555570 | 1.11° C | 98% | 1024.3 hPa | 1.27 mm | - | 72 W/m² | - |
| 1777555267 | 1.11° C | 98% | 1024.2 hPa | 1.27 mm | - | 66 W/m² | - |
| 1777554964 | 1.11° C | 98% | 1024.2 hPa | 0 mm | - | 50 W/m² | - |
| 1777554661 | 1.11° C | 98% | 1024.4 hPa | 0 mm | - | 51 W/m² | - |
| 1777554357 | 1.11° C | 98% | 1024.1 hPa | 1.78 mm | - | 55 W/m² | - |
| 1777554054 | 0.56° C | 98% | 1024.1 hPa | 1.78 mm | - | 54 W/m² | - |
| 1777553750 | 0.56° C | 98% | 1024.1 hPa | 1.27 mm | - | 53 W/m² | - |
| 1777553448 | 0.56° C | 98% | 1023.9 hPa | 1.27 mm | - | 41 W/m² | - |
| 1777553144 | 0.56° C | 98% | 1023.8 hPa | 0 mm | - | 21 W/m² | - |
| 1777552844 | 0.56° C | 98% | 1024.4 hPa | 0 mm | - | 13 W/m² | - |
| 1777552539 | 0.56° C | 98% | 1023.9 hPa | 0 mm | - | 10 W/m² | - |
| 1777552236 | 0.56° C | 98% | 1023.8 hPa | 1.78 mm | - | 8 W/m² | - |
| 1777551933 | 1.11° C | 98% | 1023.9 hPa | 1.78 mm | - | 6 W/m² | - |
| 1777551631 | 1.11° C | 98% | 1023.8 hPa | 0 mm | - | 5 W/m² | - |
* Rain latest hour (hover to see other rain measurements)
** Current wind speed in m/s (hover to see current wind gust speed)